Erie, CO

4:03 AM MST on December 14, 2017 (GMT -0700)
Erie Municipal Airport

Weather History for KEIK - October, 2012

Change the Weather History Date:

Saturday, October 27, 2012

  Actual Average (KBJC) Record (KBJC)
Temperature  
Mean Temperature 36 °F -  
Max Temperature 50 °F 55 °F 82 °F (2016)
Min Temperature 23 °F 35 °F 21 °F (2011)
Degree Days  
Heating Degree Days 28    
Moisture  
Dew Point 27 °F    
Average Humidity 77    
Maximum Humidity 99    
Minimum Humidity 30    
Precipitation  
Precipitation 0.00 in - - ()
Sea Level Pressure  
Sea Level Pressure 30.11 in    
Wind  
Wind Speed 2 mph (ENE)    
Max Wind Speed 8 mph    
Max Gust Speed -    
Visibility 8 miles    
Events      
Averages and records for this station are not official NWS values.
T = Trace of Precipitation, MM = Missing Value Source: NWS Daily Summary

Daily Weather History Graph

Daily Weather History Graph

Search for Another Location

Airport or City:

Trip Planner

Search our weather history database for the weather conditions in past years. The results will help you decide how hot, cold, wet, or windy it might be!

Date:

Astronomy

Oct. 27, 2012 Rise Set
Actual Time 7:24 AM MDT 6:03 PM MDT
Civil Twilight 6:56 AM MDT 6:31 PM MDT
Nautical Twilight 6:24 AM MDT 7:02 PM MDT
Astronomical Twilight 5:53 AM MDT 7:34 PM MDT
Moon 4:50 PM MDT (10/27) 5:21 AM MDT (10/27)
Length of Visible Light 11h 34m
Length of Day
10h 38m
Waxing Gibbous, 96% of the Moon is Illuminated
Oct 27
Waxing Gibbous
Oct 29
Full
Nov 6
Last Quarter
Nov 13
New
Nov 20
First Quarter

Hourly Weather History & Observations

Time (MDT) Temp. Windchill Dew Point Humidity Pressure Visibility Wind Dir Wind Speed Gust Speed Precip Events Conditions
12:15 AM 26.4 °F - 25.7 °F 97% 30.15 in 5.0 mi Calm Calm - N/A   Clear
12:35 AM 24.8 °F 20.5 °F 24.1 °F 97% 30.14 in 5.0 mi NNW 3.5 mph - N/A   Clear
12:55 AM 25.5 °F - 25.0 °F 98% 30.14 in 5.0 mi Calm Calm - N/A   Clear
1:15 AM 25.5 °F - 25.2 °F 99% 30.14 in 5.0 mi Calm Calm - N/A   Clear
1:35 AM 26.4 °F - 26.1 °F 99% 30.16 in 5.0 mi Calm Calm - N/A   Clear
1:55 AM 27.5 °F - 26.8 °F 97% 30.16 in 7.0 mi Calm Calm - N/A   Scattered Clouds
2:35 AM 27.9 °F 22.6 °F 26.6 °F 95% 30.15 in 7.0 mi SSW 4.6 mph - N/A   Scattered Clouds
2:55 AM 27.5 °F 23.6 °F 26.6 °F 96% 30.13 in 7.0 mi East 3.5 mph - N/A   Clear
3:15 AM 26.4 °F - 25.3 °F 96% 30.13 in 7.0 mi Calm Calm - N/A   Clear
3:35 AM 25.9 °F - 25.3 °F 98% 30.13 in 5.0 mi Calm Calm - N/A   Clear
3:55 AM 25.7 °F - 25.3 °F 99% 30.12 in 5.0 mi Calm Calm - N/A   Clear
4:15 AM 25.7 °F - 25.2 °F 98% 30.12 in 5.0 mi Calm Calm - N/A   Scattered Clouds
4:35 AM 25.2 °F 17.3 °F 24.6 °F 98% 30.12 in 5.0 mi SSW 6.9 mph - N/A   Scattered Clouds
4:55 AM 25.3 °F - 24.3 °F 96% 30.12 in 5.0 mi Calm Calm - N/A   Clear
5:15 AM 24.3 °F 19.9 °F 23.4 °F 96% 30.13 in 5.0 mi North 3.5 mph - N/A   Clear
5:55 AM 23.0 °F - 22.6 °F 99% 30.13 in 5.0 mi Calm Calm - N/A   Clear
6:15 AM 24.1 °F - 23.2 °F 96% 30.13 in 5.0 mi Calm Calm - N/A   Scattered Clouds
6:35 AM 25.3 °F 21.1 °F 24.6 °F 97% 30.12 in 5.0 mi SSW 3.5 mph - N/A   Clear
6:55 AM 25.3 °F 19.7 °F 24.3 °F 96% 30.12 in 5.0 mi South 4.6 mph - N/A   Clear
7:15 AM 25.7 °F 19.0 °F 24.6 °F 96% 30.12 in 5.0 mi South 5.8 mph - N/A   Clear
7:35 AM 25.9 °F - 25.0 °F 96% 30.12 in 3.0 mi Calm Calm - N/A   Clear
8:15 AM 26.4 °F - 25.5 °F 96% 30.12 in 3.0 mi Calm Calm - N/A   Clear
8:35 AM 27.3 °F - 26.6 °F 97% 30.11 in 2.5 mi Calm Calm - N/A   Clear
8:55 AM 28.0 °F - 26.8 °F 95% 30.12 in 3.0 mi Calm Calm - N/A   Clear
9:35 AM 32.0 °F - 29.8 °F 92% 30.11 in 4.0 mi Calm Calm - N/A   Clear
9:55 AM 33.4 °F 29.1 °F 30.6 °F 89% 30.10 in 4.0 mi NNE 4.6 mph - N/A   Clear
10:15 AM 35.6 °F 32.8 °F 31.6 °F 85% 30.11 in 4.0 mi NNW 3.5 mph - N/A   Haze
10:35 AM 36.1 °F 32.3 °F 31.8 °F 84% 30.11 in 5.0 mi North 4.6 mph - N/A   Clear
10:55 AM 37.8 °F 33.3 °F 31.8 °F 79% 30.11 in 5.0 mi NNW 5.8 mph - N/A   Haze
11:15 AM 38.1 °F - 32.0 °F 79% 30.10 in 5.0 mi Calm Calm - N/A   Haze
11:35 AM 41.0 °F 37.1 °F 32.5 °F 72% 30.09 in 7.0 mi North 5.8 mph - N/A   Clear
11:55 AM 44.1 °F 41.5 °F 28.6 °F 55% 30.09 in 10.0 mi WNW 4.6 mph - N/A   Clear
12:15 PM 45.1 °F 42.8 °F 31.3 °F 58% 30.08 in 10.0 mi North 4.6 mph - N/A   Clear
12:35 PM 45.5 °F - 28.2 °F 51% 30.07 in 10.0 mi Calm Calm - N/A   Clear
12:55 PM 47.1 °F - 29.3 °F 50% 30.07 in 10.0 mi NE 3.5 mph - N/A   Clear
1:15 PM 47.8 °F - 27.7 °F 46% 30.07 in 10.0 mi East 3.5 mph - N/A   Clear
1:35 PM 49.1 °F - 26.4 °F 41% 30.06 in 10.0 mi Calm Calm - N/A   Clear
1:55 PM 48.9 °F - 26.4 °F 42% 30.06 in 10.0 mi ENE 8.1 mph - N/A   Clear
2:15 PM 49.5 °F - 26.1 °F 40% 30.07 in 10.0 mi ENE 5.8 mph - N/A   Clear
2:35 PM 49.5 °F - 22.8 °F 35% 30.06 in 10.0 mi East 5.8 mph - N/A   Clear
2:55 PM 49.1 °F - 23.4 °F 36% 30.06 in 10.0 mi East 6.9 mph - N/A   Clear
3:15 PM 48.2 °F - 20.8 °F 34% 30.05 in 10.0 mi Calm Calm - N/A   Clear
3:35 PM 47.7 °F - 21.2 °F 35% 30.06 in 10.0 mi Calm Calm - N/A   Clear
3:55 PM 48.4 °F - 22.6 °F 36% 30.06 in 10.0 mi Calm Calm - N/A   Clear
4:15 PM 50.0 °F - 19.4 °F 30% 30.06 in 10.0 mi Calm Calm - N/A   Clear
4:35 PM 50.0 °F - 23.0 °F 35% 30.06 in 10.0 mi ENE 6.9 mph - N/A   Clear
4:55 PM 48.6 °F - 29.1 °F 47% 30.06 in 10.0 mi East 8.1 mph - N/A   Clear
5:15 PM 47.8 °F - 29.1 °F 48% 30.05 in 10.0 mi ENE 6.9 mph - N/A   Clear
5:35 PM 46.6 °F - 28.4 °F 49% 30.07 in 10.0 mi ESE 6.9 mph - N/A   Clear
5:55 PM 43.7 °F 41.1 °F 29.5 °F 57% 30.08 in 10.0 mi South 4.6 mph - N/A   Clear
6:15 PM 42.3 °F 38.6 °F 28.9 °F 59% 30.08 in 10.0 mi ESE 5.8 mph - N/A   Clear
6:35 PM 39.7 °F - 29.3 °F 66% 30.09 in 10.0 mi Calm Calm - N/A   Clear
6:55 PM 38.7 °F - 29.7 °F 70% 30.09 in 10.0 mi Calm Calm - N/A   Clear
7:15 PM 39.0 °F 33.4 °F 28.4 °F 66% 30.09 in 10.0 mi ESE 8.1 mph - N/A   Clear
7:35 PM 38.3 °F - 28.2 °F 67% 30.11 in 10.0 mi Calm Calm - N/A   Clear
7:55 PM 36.5 °F 32.7 °F 30.6 °F 79% 30.12 in 10.0 mi WNW 4.6 mph - N/A   Clear
8:15 PM 35.8 °F - 31.1 °F 83% 30.12 in 10.0 mi Calm Calm - N/A   Clear
8:35 PM 34.0 °F - 31.3 °F 90% 30.13 in 10.0 mi Calm Calm - N/A   Clear
8:55 PM 33.3 °F - 31.6 °F 94% 30.13 in 10.0 mi Calm Calm - N/A   Clear
9:15 PM 33.8 °F - 31.6 °F 92% 30.13 in 10.0 mi Calm Calm - N/A   Clear
9:35 PM 32.0 °F - 30.9 °F 96% 30.12 in 10.0 mi Calm Calm - N/A   Clear
9:55 PM 31.5 °F - 30.4 °F 96% 30.13 in 7.0 mi Calm Calm - N/A   Clear
10:15 PM 30.9 °F - 29.8 °F 96% 30.13 in 10.0 mi Calm Calm - N/A   Clear
10:35 PM 30.4 °F - 29.3 °F 96% 30.13 in 10.0 mi Calm Calm - N/A   Clear
10:55 PM 30.4 °F 26.9 °F 29.5 °F 96% 30.12 in 10.0 mi SSW 3.5 mph - N/A   Clear
11:15 PM 30.2 °F - 29.3 °F 96% 30.12 in 10.0 mi Calm Calm - N/A   Clear
11:35 PM 30.0 °F - 29.1 °F 96% 30.12 in 10.0 mi Calm Calm - N/A   Clear